KOA185 YSSY-YMML

Flight info

Callsign KOA185
Flight time 1h 3m
Altitude 38000
Route ABBEY3 WOL DCT CB DCT BOYSE BOYS9A
Aircraft A20N/M-SDE2E3FGHIJ1RWXY/LB1

Departure

Time 2026-04-22 10:28
Airport Sydney Kingsford Smith International Airport (YSSY)

Arrival

Time 2026-04-22 11:31
Airport Melbourne Airport (YMML)
Time Latitude Longitude Altitude Speed Heading
2026-04-22 10:14 -33.93225 151.17672 30 ft 0 kts 71°
2026-04-22 10:21 -33.93225 151.17670 30 ft 2 kts 71°
2026-04-22 10:21 -33.93230 151.17656 31 ft 1 kts 72°
2026-04-22 10:22 -33.93233 151.17643 32 ft 2 kts 71°
2026-04-22 10:22 -33.93238 151.17625 32 ft 2 kts 71°
2026-04-22 10:22 -33.93243 151.17606 31 ft 2 kts 70°
2026-04-22 10:22 -33.93249 151.17588 30 ft 2 kts 68°
2026-04-22 10:23 -33.93256 151.17570 30 ft 2 kts 50°
2026-04-22 10:23 -33.93266 151.17562 30 ft 1 kts 352°
2026-04-22 10:23 -33.93265 151.17562 30 ft 1 kts 351°
2026-04-22 10:23 -33.93261 151.17561 30 ft 0 kts 351°
2026-04-22 10:24 -33.93252 151.17560 30 ft 3 kts 351°
2026-04-22 10:25 -33.93221 151.17554 30 ft 6 kts 351°
2026-04-22 10:25 -33.93165 151.17543 30 ft 10 kts 350°
2026-04-22 10:25 -33.93086 151.17534 30 ft 13 kts
2026-04-22 10:25 -33.93003 151.17511 30 ft 12 kts 299°
2026-04-22 10:26 -33.92971 151.17388 25 ft 20 kts 278°
2026-04-22 10:26 -33.92957 151.17301 20 ft 0 kts 282°
2026-04-22 10:27 -33.92954 151.17281 20 ft 5 kts 279°
2026-04-22 10:27 -33.92964 151.17226 19 ft 9 kts 241°
2026-04-22 10:27 -33.93023 151.17186 19 ft 11 kts 177°
2026-04-22 10:27 -33.93335 151.17264 18 ft 88 kts 168°
2026-04-22 10:28 -33.94164 151.17493 47 ft 150 kts 165°
2026-04-22 10:28 -33.95238 151.17725 666 ft 162 kts 174°
2026-04-22 10:28 -33.96366 151.17735 1723 ft 159 kts 179°
2026-04-22 10:28 -33.97496 151.17672 2492 ft 170 kts 180°
2026-04-22 10:29 -33.98732 151.17608 3018 ft 190 kts 180°
2026-04-22 10:29 -34.00157 151.17559 3490 ft 215 kts 179°
2026-04-22 10:29 -34.01721 151.17531 4082 ft 235 kts 178°
2026-04-22 10:29 -34.03418 151.17745 4566 ft 261 kts 168°
2026-04-22 10:30 -34.05293 151.18343 4785 ft 293 kts 164°
2026-04-22 10:30 -34.07257 151.19013 5857 ft 288 kts 164°
2026-04-22 10:30 -34.09142 151.19651 7266 ft 275 kts 164°
2026-04-22 10:30 -34.10923 151.20248 8543 ft 267 kts 163°
2026-04-22 10:31 -34.12726 151.20849 9488 ft 271 kts 163°
2026-04-22 10:31 -34.14557 151.21458 10383 ft 276 kts 162°
2026-04-22 10:31 -34.16458 151.22093 10920 ft 294 kts 162°
2026-04-22 10:31 -34.18525 151.22447 11532 ft 308 kts 181°
2026-04-22 10:32 -34.20621 151.21814 12358 ft 317 kts 203°
2026-04-22 10:32 -34.22410 151.20194 13169 ft 329 kts 224°
2026-04-22 10:32 -34.23933 151.18105 13987 ft 334 kts 226°
2026-04-22 10:32 -34.25439 151.15954 14728 ft 338 kts 226°
2026-04-22 10:33 -34.26969 151.13763 15431 ft 343 kts 226°
2026-04-22 10:33 -34.28522 151.11546 16145 ft 348 kts 225°
2026-04-22 10:33 -34.30099 151.09309 16839 ft 352 kts 225°
2026-04-22 10:33 -34.31703 151.07041 17534 ft 357 kts 224°
2026-04-22 10:34 -34.33332 151.04744 18149 ft 363 kts 224°
2026-04-22 10:34 -34.34985 151.02412 18815 ft 367 kts 224°
2026-04-22 10:34 -34.36647 151.00067 19496 ft 367 kts 223°
2026-04-22 10:34 -34.38455 150.97907 20172 ft 364 kts 216°
2026-04-22 10:35 -34.40387 150.95835 20442 ft 379 kts 217°
2026-04-22 10:35 -34.42398 150.93667 20700 ft 392 kts 217°
2026-04-22 10:35 -34.44437 150.91454 21322 ft 394 kts 217°
2026-04-22 10:35 -34.46475 150.89235 21989 ft 395 kts 217°
2026-04-22 10:36 -34.48527 150.87002 22608 ft 397 kts 217°
2026-04-22 10:36 -34.50590 150.84759 23164 ft 401 kts 217°
2026-04-22 10:36 -34.52677 150.82489 23733 ft 404 kts 217°
2026-04-22 10:36 -34.54692 150.80095 24297 ft 409 kts 224°
2026-04-22 10:37 -34.55896 150.78334 24661 ft 411 kts 229°
2026-04-22 10:37 -34.58905 150.72365 25824 ft 414 kts 237°
2026-04-22 10:37 -34.60309 150.69324 26354 ft 414 kts 236°
2026-04-22 10:38 -34.61729 150.66267 26789 ft 416 kts 237°
2026-04-22 10:38 -34.63151 150.63202 27273 ft 417 kts 237°
2026-04-22 10:38 -34.64577 150.60124 27745 ft 419 kts 237°
2026-04-22 10:38 -34.66004 150.57036 28155 ft 421 kts 237°
2026-04-22 10:39 -34.67454 150.53896 28260 ft 431 kts 237°
2026-04-22 10:39 -34.68934 150.50689 28371 ft 439 kts 237°
2026-04-22 10:39 -34.70440 150.47419 28413 ft 448 kts 237°
2026-04-22 10:40 -34.73546 150.40661 28409 ft 466 kts 238°
2026-04-22 10:40 -34.76734 150.33707 28419 ft 475 kts 238°
2026-04-22 10:41 -34.79959 150.26657 28421 ft 479 kts 238°
2026-04-22 10:41 -34.83204 150.19549 28422 ft 481 kts 238°
2026-04-22 10:42 -34.86433 150.12464 28420 ft 482 kts 238°
2026-04-22 10:42 -34.89682 150.05318 28667 ft 477 kts 238°
2026-04-22 10:42 -34.91256 150.01846 29616 ft 459 kts 238°
2026-04-22 10:43 -34.92766 149.98508 30833 ft 440 kts 238°
2026-04-22 10:43 -34.94227 149.95282 31591 ft 433 kts 238°
2026-04-22 10:43 -34.95682 149.92074 31916 ft 434 kts 238°
2026-04-22 10:43 -34.97141 149.88854 32298 ft 433 kts 238°
2026-04-22 10:44 -34.98594 149.85645 32679 ft 432 kts 238°
2026-04-22 10:44 -35.00039 149.82446 33092 ft 430 kts 239°
2026-04-22 10:44 -35.01479 149.79255 33512 ft 428 kts 239°
2026-04-22 10:44 -35.02911 149.76077 33925 ft 426 kts 239°
2026-04-22 10:45 -35.04333 149.72917 34325 ft 424 kts 239°
2026-04-22 10:45 -35.05751 149.69767 34659 ft 423 kts 239°
2026-04-22 10:45 -35.07164 149.66623 34946 ft 422 kts 239°
2026-04-22 10:45 -35.08576 149.63478 35177 ft 423 kts 239°
2026-04-22 10:46 -35.09988 149.60330 35439 ft 422 kts 239°
2026-04-22 10:46 -35.11399 149.57184 35639 ft 423 kts 239°
2026-04-22 10:46 -35.12813 149.54028 35880 ft 423 kts 239°
2026-04-22 10:46 -35.14222 149.50880 36132 ft 422 kts 239°
2026-04-22 10:47 -35.15629 149.47732 36384 ft 422 kts 240°
2026-04-22 10:47 -35.17033 149.44586 36624 ft 421 kts 240°
2026-04-22 10:47 -35.18435 149.41444 36850 ft 421 kts 240°
2026-04-22 10:47 -35.19835 149.38304 37068 ft 420 kts 240°
2026-04-22 10:48 -35.21230 149.35170 37293 ft 420 kts 240°
2026-04-22 10:48 -35.22625 149.32034 37502 ft 419 kts 240°
2026-04-22 10:48 -35.24019 149.28899 37718 ft 419 kts 240°
2026-04-22 10:48 -35.25409 149.25768 37917 ft 419 kts 240°
2026-04-22 10:49 -35.26795 149.22645 38111 ft 418 kts 240°
2026-04-22 10:49 -35.28235 149.19550 38294 ft 418 kts 236°
2026-04-22 10:49 -35.29904 149.16649 38425 ft 418 kts 232°
2026-04-22 10:50 -35.33368 149.10914 38429 ft 425 kts 233°
2026-04-22 10:50 -35.36902 149.05033 38425 ft 432 kts 233°
2026-04-22 10:51 -35.40481 148.99073 38423 ft 436 kts 233°
2026-04-22 10:51 -35.44088 148.93054 38425 ft 440 kts 233°
2026-04-22 10:52 -35.47714 148.86989 38423 ft 442 kts 233°
2026-04-22 10:52 -35.51348 148.80897 38425 ft 444 kts 233°
2026-04-22 10:53 -35.54998 148.74774 38420 ft 445 kts 233°
2026-04-22 10:53 -35.58653 148.68629 38434 ft 446 kts 233°
2026-04-22 10:54 -35.62306 148.62476 38433 ft 446 kts 233°
2026-04-22 10:54 -35.65966 148.56301 38431 ft 447 kts 233°
2026-04-22 10:55 -35.69626 148.50115 38430 ft 447 kts 233°
2026-04-22 10:55 -35.73284 148.43920 38424 ft 448 kts 234°
2026-04-22 10:56 -35.76944 148.37712 38424 ft 448 kts 234°
2026-04-22 10:56 -35.80599 148.31499 38426 ft 448 kts 234°
2026-04-22 10:57 -35.84252 148.25279 38411 ft 448 kts 234°
2026-04-22 10:57 -35.87906 148.19048 38405 ft 449 kts 234°
2026-04-22 10:58 -35.91561 148.12803 38406 ft 449 kts 234°
2026-04-22 10:58 -35.95214 148.06549 38407 ft 449 kts 234°
2026-04-22 10:59 -35.98865 148.00287 38395 ft 450 kts 234°
2026-04-22 10:59 -36.02516 147.94015 38395 ft 450 kts 234°
2026-04-22 11:00 -36.06163 147.87737 38394 ft 449 kts 234°
2026-04-22 11:00 -36.09806 147.81456 38390 ft 449 kts 234°
2026-04-22 11:01 -36.13445 147.75168 38389 ft 449 kts 234°
2026-04-22 11:01 -36.17082 147.68875 38385 ft 450 kts 234°
2026-04-22 11:02 -36.20716 147.62573 38366 ft 449 kts 234°
2026-04-22 11:02 -36.24339 147.56279 38379 ft 448 kts 234°
2026-04-22 11:03 -36.27954 147.49989 38383 ft 448 kts 234°
2026-04-22 11:03 -36.31568 147.43687 38380 ft 448 kts 234°
2026-04-22 11:04 -36.35173 147.37390 38370 ft 448 kts 234°
2026-04-22 11:04 -36.38773 147.31092 38380 ft 448 kts 234°
2026-04-22 11:05 -36.42346 147.24828 38381 ft 447 kts 234°
2026-04-22 11:05 -36.45938 147.18521 38381 ft 447 kts 234°
2026-04-22 11:06 -36.49523 147.12213 38384 ft 447 kts 235°
2026-04-22 11:06 -36.53108 147.05893 38342 ft 448 kts 235°
2026-04-22 11:07 -36.56699 146.99551 38273 ft 449 kts 235°
2026-04-22 11:07 -36.60292 146.93195 38202 ft 449 kts 235°
2026-04-22 11:08 -36.63886 146.86825 38152 ft 450 kts 235°
2026-04-22 11:08 -36.67481 146.80440 38081 ft 450 kts 235°
2026-04-22 11:09 -36.71077 146.74042 38019 ft 451 kts 235°
2026-04-22 11:09 -36.74671 146.67633 37957 ft 451 kts 235°
2026-04-22 11:10 -36.78269 146.61210 37884 ft 452 kts 235°
2026-04-22 11:10 -36.81867 146.54771 37827 ft 452 kts 235°
2026-04-22 11:11 -36.85458 146.48333 37761 ft 453 kts 235°
2026-04-22 11:11 -36.89056 146.41870 37704 ft 453 kts 236°
2026-04-22 11:12 -36.92648 146.35407 37646 ft 453 kts 236°
2026-04-22 11:12 -36.96232 146.28942 37531 ft 445 kts 236°
2026-04-22 11:12 -36.97961 146.25822 37128 ft 430 kts 236°
2026-04-22 11:13 -36.99654 146.22762 36179 ft 427 kts 236°
2026-04-22 11:13 -37.01352 146.19692 34979 ft 432 kts 237°
2026-04-22 11:13 -37.03071 146.16579 33656 ft 438 kts 237°
2026-04-22 11:13 -37.04808 146.13428 32324 ft 442 kts 237°
2026-04-22 11:14 -37.06559 146.10250 31000 ft 446 kts 236°
2026-04-22 11:14 -37.08328 146.07036 29510 ft 450 kts 236°
2026-04-22 11:14 -37.10113 146.03795 27914 ft 455 kts 236°
2026-04-22 11:14 -37.11921 146.00508 26286 ft 461 kts 237°
2026-04-22 11:15 -37.13750 145.97179 24622 ft 467 kts 237°
2026-04-22 11:15 -37.15600 145.93809 23094 ft 469 kts 237°
2026-04-22 11:15 -37.17432 145.90466 21910 ft 460 kts 237°
2026-04-22 11:15 -37.19224 145.87193 20747 ft 451 kts 236°
2026-04-22 11:16 -37.20980 145.83984 19645 ft 443 kts 236°
2026-04-22 11:16 -37.22706 145.80823 18567 ft 435 kts 236°
2026-04-22 11:16 -37.24397 145.77725 17284 ft 428 kts 236°
2026-04-22 11:16 -37.26072 145.74657 16133 ft 422 kts 236°
2026-04-22 11:17 -37.27713 145.71649 15023 ft 414 kts 236°
2026-04-22 11:17 -37.29328 145.68687 13884 ft 409 kts 236°
2026-04-22 11:17 -37.30924 145.65766 12693 ft 403 kts 236°
2026-04-22 11:17 -37.32520 145.62963 11547 ft 397 kts 234°
2026-04-22 11:18 -37.34146 145.60175 10430 ft 393 kts 234°
2026-04-22 11:18 -37.35752 145.57423 9315 ft 387 kts 233°
2026-04-22 11:18 -37.37323 145.54715 8276 ft 380 kts 233°
2026-04-22 11:18 -37.38863 145.52051 7270 ft 373 kts 233°
2026-04-22 11:19 -37.40379 145.49423 6201 ft 369 kts 233°
2026-04-22 11:19 -37.41875 145.46829 5191 ft 363 kts 233°
2026-04-22 11:19 -37.43360 145.44250 4535 ft 348 kts 233°
2026-04-22 11:19 -37.44750 145.41967 4417 ft 319 kts 227°
2026-04-22 11:20 -37.46288 145.40069 4298 ft 293 kts 219°
2026-04-22 11:20 -37.47750 145.38470 4150 ft 274 kts 220°
2026-04-22 11:20 -37.49162 145.36906 3697 ft 268 kts 220°
2026-04-22 11:20 -37.50527 145.35387 3421 ft 254 kts 220°
2026-04-22 11:21 -37.51807 145.33962 3276 ft 238 kts 220°
2026-04-22 11:21 -37.53038 145.32592 3163 ft 236 kts 220°
2026-04-22 11:21 -37.54234 145.31263 3011 ft 223 kts 220°
2026-04-22 11:21 -37.55394 145.29970 2597 ft 222 kts 220°
2026-04-22 11:22 -37.56531 145.28709 2510 ft 212 kts 220°
2026-04-22 11:22 -37.57601 145.27520 2507 ft 199 kts 221°
2026-04-22 11:22 -37.58779 145.26216 2327 ft 258 kts 221°
2026-04-22 11:22 -37.60176 145.24695 1856 ft 262 kts 220°
2026-04-22 11:23 -37.61470 145.23258 2087 ft 235 kts 222°
2026-04-22 11:23 -37.62620 145.21935 2268 ft 212 kts 223°
2026-04-22 11:23 -37.63322 145.21121 2414 ft 193 kts 222°
2026-04-22 11:23 -37.64303 145.20002 2210 ft 191 kts 223°
2026-04-22 11:24 -37.65370 145.18700 2388 ft 236 kts 223°
2026-04-22 11:24 -37.66712 145.17151 2555 ft 288 kts 221°
2026-04-22 11:24 -37.68358 145.15357 2452 ft 330 kts 220°
2026-04-22 11:24 -37.70175 145.13412 2446 ft 341 kts 220°
2026-04-22 11:25 -37.71915 145.11517 2494 ft 319 kts 220°
2026-04-22 11:25 -37.73532 145.09728 2497 ft 299 kts 221°
2026-04-22 11:25 -37.75040 145.08043 2495 ft 280 kts 221°
2026-04-22 11:25 -37.76454 145.06457 2496 ft 264 kts 221°
2026-04-22 11:26 -37.77826 145.04915 2500 ft 267 kts 221°
2026-04-22 11:26 -37.79212 145.03359 2487 ft 266 kts 221°
2026-04-22 11:26 -37.80583 145.01770 2625 ft 269 kts 229°
2026-04-22 11:26 -37.81562 144.99740 2844 ft 271 kts 251°
2026-04-22 11:27 -37.81998 144.97452 2940 ft 265 kts 258°
2026-04-22 11:27 -37.82384 144.95157 2993 ft 268 kts 258°
2026-04-22 11:27 -37.82706 144.92874 2790 ft 262 kts 262°
2026-04-22 11:27 -37.82963 144.90739 2678 ft 228 kts 262°
2026-04-22 11:28 -37.83088 144.88844 2321 ft 207 kts 280°
2026-04-22 11:28 -37.82520 144.87322 2199 ft 187 kts 315°
2026-04-22 11:28 -37.81445 144.86544 2190 ft 178 kts 348°
2026-04-22 11:28 -37.80230 144.86291 2171 ft 180 kts 352°
2026-04-22 11:29 -37.78983 144.86053 2187 ft 178 kts 352°
2026-04-22 11:29 -37.77802 144.85830 2067 ft 169 kts 352°
2026-04-22 11:29 -37.76653 144.85615 1686 ft 162 kts 352°
2026-04-22 11:29 -37.75567 144.85412 1314 ft 159 kts 351°
2026-04-22 11:30 -37.74412 144.85192 1264 ft 171 kts 352°
2026-04-22 11:30 -37.73227 144.84973 1217 ft 175 kts 352°
2026-04-22 11:30 -37.72037 144.84778 1150 ft 173 kts 352°
2026-04-22 11:30 -37.70859 144.84537 981 ft 170 kts 351°
2026-04-22 11:31 -37.69732 144.84288 727 ft 156 kts 352°
2026-04-22 11:31 -37.68705 144.84116 411 ft 141 kts 351°
2026-04-22 11:31 -37.67834 144.83977 355 ft 101 kts 352°
2026-04-22 11:31 -37.67343 144.83877 370 ft 42 kts 351°
2026-04-22 11:32 -37.67187 144.83845 377 ft 18 kts 349°
2026-04-22 11:32 -37.67069 144.83833 380 ft 17 kts
2026-04-22 11:32 -37.66958 144.83855 382 ft 16 kts 15°
2026-04-22 11:32 -37.66868 144.83897 383 ft 0 kts 23°
2026-04-22 11:33 -37.66867 144.83898 383 ft 1 kts 23°
2026-04-22 11:33 -37.66840 144.83912 383 ft 8 kts 23°
2026-04-22 11:34 -37.66758 144.83960 382 ft 17 kts 36°
2026-04-22 11:34 -37.66737 144.84126 377 ft 27 kts 122°
2026-04-22 11:34 -37.66920 144.84240 372 ft 29 kts 133°
2026-04-22 11:34 -37.66986 144.84436 367 ft 22 kts 117°
2026-04-22 11:35 -37.66979 144.84520 360 ft 0 kts 59°
2026-04-22 11:35 -37.66977 144.84539 366 ft 5 kts 95°
2026-04-22 11:35 -37.66974 144.84617 359 ft 13 kts 81°
2026-04-22 11:36 -37.66921 144.84674 356 ft 9 kts
2026-04-22 11:36 -37.66905 144.84677 355 ft 0 kts
2026-04-22 11:36 -37.66907 144.84676 357 ft 0 kts